Simultaneous Nadir Overpasses (SNOs) Predictions

Prediction of SNOs between GOES-16 and METOP-C Satellite Orbit:

Table of predicted SNOs for the next 14.0 days since TLE Epoch: 5/4/2024
Index Date Time (GOES-16) GOES-16 Lat,Lon METOP-C Lat,Lon Distance(km) Time Diff (sec)
1 05/04/2024 14:30:54 0.05, -75.21 0.15, -75.62 47.30 80
2 05/07/2024 02:31:56 -0.05, -75.21 -0.04, -75.22 1.70 80
3 05/09/2024 14:30:08 0.04, -75.25 -0.03, -74.78 52.31 80
4 05/11/2024 02:49:10 -0.04, -75.25 -0.95, -79.38 470.71 80
5 05/12/2024 02:25:50 -0.03, -75.26 0.15, -74.38 99.68 80
6 05/13/2024 14:44:43 0.03, -75.29 0.85, -78.94 416.44 80
7 05/14/2024 14:26:44 0.02, -75.31 -0.31, -73.96 154.65 80
8 05/16/2024 02:45:44 -0.02, -75.33 -0.73, -78.55 366.65 80
9 05/17/2024 02:22:25 -0.02, -75.35 0.37, -73.55 204.91 80
